Time,TemperatureF,DewpointF,PressureIn,WindDirection,WindDirectionDegrees,WindSpeedMPH,WindSpeedGustMPH,Humidity,HourlyPrecipIn,Conditions,Clouds,dailyrainin,SoftwareType,DateUTC
2013-03-11 00:26:00,50.0,37.5,29.97,East,90,0.0,-999.0,62,-99.99,,,0.00,Acu-Link.com,2013-03-11 04:26:00,
2013-03-11 00:41:00,48.2,35.4,29.96,NNE,22,0.0,-999.0,61,-99.99,,,0.00,Acu-Link.com,2013-03-11 04:41:00,
2013-03-11 00:57:00,48.2,35.4,29.96,ESE,112,2.7,-999.0,61,-99.99,,,0.00,Acu-Link.com,2013-03-11 04:57:00,
2013-03-11 01:12:00,46.4,35.7,29.96,North,0,0.0,-999.0,66,-99.99,,,0.00,Acu-Link.com,2013-03-11 05:12:00,
2013-03-11 01:27:00,46.4,34.1,29.96,NNE,22,0.0,-999.0,62,-99.99,,,0.00,Acu-Link.com,2013-03-11 05:27:00,
2013-03-11 01:43:00,44.6,32.8,29.95,ENE,67,1.1,-999.0,63,-99.99,,,0.00,Acu-Link.com,2013-03-11 05:43:00,
2013-03-11 01:58:00,44.6,34.0,29.95,ENE,67,0.0,-999.0,66,-99.99,,,0.00,Acu-Link.com,2013-03-11 05:58:00,
2013-03-11 02:13:00,42.8,30.7,29.95,NNE,22,0.0,-999.0,62,-99.99,,,0.00,Acu-Link.com,2013-03-11 06:13:00,
2013-03-11 02:28:00,42.8,30.3,29.95,NNE,22,1.1,-999.0,61,-99.99,,,0.00,Acu-Link.com,2013-03-11 06:28:00,
2013-03-11 02:44:00,42.8,30.7,29.95,NE,45,0.0,-999.0,62,-99.99,,,0.00,Acu-Link.com,2013-03-11 06:44:00,
2013-03-11 02:59:00,42.8,29.5,29.94,North,0,0.0,-999.0,59,-99.99,,,0.00,Acu-Link.com,2013-03-11 06:59:00,
2013-03-11 03:14:00,42.8,31.9,29.94,NE,45,0.0,-999.0,65,-99.99,,,0.00,Acu-Link.com,2013-03-11 07:14:00,
2013-03-11 03:30:00,42.8,30.3,29.94,NNE,22,1.1,-999.0,61,-99.99,,,0.00,Acu-Link.com,2013-03-11 07:30:00,
2013-03-11 03:45:00,42.8,30.3,29.93,NE,45,0.0,-999.0,61,-99.99,,,0.00,Acu-Link.com,2013-03-11 07:45:00,
2013-03-11 04:00:00,42.8,31.5,29.92,WNW,292,0.0,-999.0,64,-99.99,,,0.00,Acu-Link.com,2013-03-11 08:00:00,
2013-03-11 04:15:00,42.8,31.5,29.91,NNE,22,1.1,-999.0,64,-99.99,,,0.00,Acu-Link.com,2013-03-11 08:15:00,
2013-03-11 04:30:00,42.8,31.1,29.90,NNE,22,0.0,-999.0,63,-99.99,,,0.00,Acu-Link.com,2013-03-11 08:30:00,
2013-03-11 04:45:00,42.8,31.1,29.90,NNE,22,0.0,-999.0,63,-99.99,,,0.00,Acu-Link.com,2013-03-11 08:45:00,
2013-03-11 05:01:00,41.0,30.9,29.91,ESE,112,0.0,-999.0,67,-99.99,,,0.00,Acu-Link.com,2013-03-11 09:01:00,
2013-03-11 05:31:00,41.0,29.8,29.90,ESE,112,0.0,-999.0,64,-99.99,,,0.00,Acu-Link.com,2013-03-11 09:31:00,
2013-03-11 06:01:00,41.0,29.8,29.89,NE,45,0.0,-999.0,64,-99.99,,,0.00,Acu-Link.com,2013-03-11 10:01:00,
2013-03-11 06:17:00,41.0,28.6,29.90,NE,45,0.0,-999.0,61,-99.99,,,0.00,Acu-Link.com,2013-03-11 10:17:00,
2013-03-11 06:32:00,39.2,28.4,29.90,NNE,22,0.0,-999.0,65,-99.99,,,0.00,Acu-Link.com,2013-03-11 10:32:00,
2013-03-11 06:47:00,39.2,28.1,29.89,NNE,22,0.0,-999.0,64,-99.99,,,0.00,Acu-Link.com,2013-03-11 10:47:00,
2013-03-11 07:02:00,39.2,28.4,29.89,NE,45,1.6,-999.0,65,-99.99,,,0.00,Acu-Link.com,2013-03-11 11:02:00,
2013-03-11 07:18:00,39.2,25.7,29.89,North,0,2.0,-999.0,58,-99.99,,,0.00,Acu-Link.com,2013-03-11 11:18:00,
2013-03-11 07:33:00,41.0,27.8,29.89,North,0,0.0,-999.0,59,-99.99,,,0.00,Acu-Link.com,2013-03-11 11:33:00,
2013-03-11 07:48:00,41.0,30.5,29.89,NE,45,0.0,-999.0,66,-99.99,,,0.00,Acu-Link.com,2013-03-11 11:48:00,
2013-03-11 08:04:00,41.0,28.6,29.89,NNW,337,0.0,-999.0,61,-99.99,,,0.00,Acu-Link.com,2013-03-11 12:04:00,
2013-03-11 08:19:00,41.0,30.2,29.89,NNE,22,1.6,-999.0,65,-99.99,,,0.00,Acu-Link.com,2013-03-11 12:19:00,
2013-03-11 08:34:00,42.8,31.5,29.89,East,90,1.1,-999.0,64,-99.99,,,0.00,Acu-Link.com,2013-03-11 12:34:00,
2013-03-11 08:50:00,44.6,32.8,29.89,ESE,112,0.0,-999.0,63,-99.99,,,0.00,Acu-Link.com,2013-03-11 12:50:00,
2013-03-11 09:05:00,44.6,31.2,29.90,SW,225,1.1,-999.0,59,-99.99,,,0.00,Acu-Link.com,2013-03-11 13:05:00,
2013-03-11 09:20:00,46.4,32.4,29.90,SSW,202,0.0,-999.0,58,-99.99,,,0.00,Acu-Link.com,2013-03-11 13:20:00,
2013-03-11 09:35:00,46.4,32.9,29.90,SSW,202,1.6,-999.0,59,-99.99,,,0.00,Acu-Link.com,2013-03-11 13:35:00,
2013-03-11 09:50:00,48.2,35.0,29.91,ESE,112,1.1,-999.0,60,-99.99,,,0.00,Acu-Link.com,2013-03-11 13:50:00,
2013-03-11 10:05:00,50.0,36.2,29.90,SSW,202,1.6,-999.0,59,-99.99,,,0.00,Acu-Link.com,2013-03-11 14:05:00,
2013-03-11 10:36:00,51.8,39.2,29.89,SSE,157,2.0,-999.0,62,-99.99,,,0.00,Acu-Link.com,2013-03-11 14:36:00,
2013-03-11 10:51:00,53.6,40.9,29.88,South,180,1.6,-999.0,62,-99.99,,,0.00,Acu-Link.com,2013-03-11 14:51:00,
2013-03-11 11:06:00,53.6,41.3,29.88,South,180,2.0,-999.0,63,-99.99,,,0.00,Acu-Link.com,2013-03-11 15:06:00,
2013-03-11 11:21:00,55.4,43.4,29.88,East,90,3.6,-999.0,64,-99.99,,,0.00,Acu-Link.com,2013-03-11 15:21:00,
2013-03-11 11:37:00,55.4,43.8,29.87,ESE,112,1.6,-999.0,65,-99.99,,,0.00,Acu-Link.com,2013-03-11 15:37:00,
2013-03-11 11:52:00,57.2,45.5,29.86,SE,135,3.1,-999.0,65,-99.99,,,0.00,Acu-Link.com,2013-03-11 15:52:00,
2013-03-11 12:07:00,59.0,47.7,29.85,South,180,3.6,-999.0,66,-99.99,,,0.00,Acu-Link.com,2013-03-11 16:07:00,
2013-03-11 12:22:00,62.6,49.4,29.85,WNW,292,4.7,-999.0,62,-99.99,,,0.00,Acu-Link.com,2013-03-11 16:22:00,
2013-03-11 12:37:00,62.6,49.8,29.84,SSW,202,4.7,-999.0,63,-99.99,,,0.00,Acu-Link.com,2013-03-11 16:37:00,
2013-03-11 12:53:00,60.8,49.4,29.83,SSW,202,4.7,-999.0,66,-99.99,,,0.00,Acu-Link.com,2013-03-11 16:53:00,
2013-03-11 13:08:00,64.4,51.5,29.83,South,180,4.7,-999.0,63,-99.99,,,0.00,Acu-Link.com,2013-03-11 17:08:00,
2013-03-11 13:23:00,68.0,52.2,29.82,South,180,8.3,-999.0,57,-99.99,,,0.00,Acu-Link.com,2013-03-11 17:23:00,
2013-03-11 13:38:00,66.2,51.4,29.80,West,270,3.6,-999.0,59,-99.99,,,0.00,Acu-Link.com,2013-03-11 17:38:00,
2013-03-11 13:54:00,64.4,50.2,29.79,SSE,157,4.0,-999.0,60,-99.99,,,0.00,Acu-Link.com,2013-03-11 17:54:00,
2013-03-11 14:09:00,66.2,50.5,29.78,South,180,2.0,-999.0,57,-99.99,,,0.00,Acu-Link.com,2013-03-11 18:09:00,
2013-03-11 14:24:00,68.0,49.7,29.77,SW,225,4.7,-999.0,52,-99.99,,,0.00,Acu-Link.com,2013-03-11 18:24:00,
2013-03-11 14:40:00,68.0,50.2,29.76,South,180,5.6,-999.0,53,-99.99,,,0.00,Acu-Link.com,2013-03-11 18:40:00,
2013-03-11 14:55:00,69.8,51.4,29.74,NNW,337,4.0,-999.0,52,-99.99,,,0.00,Acu-Link.com,2013-03-11 18:55:00,
2013-03-11 15:10:00,68.0,50.2,29.73,SSW,202,5.6,-999.0,53,-99.99,,,0.00,Acu-Link.com,2013-03-11 19:10:00,
2013-03-11 15:26:00,68.0,51.2,29.72,SW,225,3.1,-999.0,55,-99.99,,,0.00,Acu-Link.com,2013-03-11 19:26:00,
2013-03-11 15:56:00,69.8,49.8,29.70,SSE,157,2.7,-999.0,49,-99.99,,,0.00,Acu-Link.com,2013-03-11 19:56:00,
2013-03-11 16:11:00,69.8,50.3,29.69,SSE,157,4.7,-999.0,50,-99.99,,,0.00,Acu-Link.com,2013-03-11 20:11:00,
2013-03-11 16:27:00,69.8,50.8,29.70,West,270,3.6,-999.0,51,-99.99,,,0.00,Acu-Link.com,2013-03-11 20:27:00,
2013-03-11 16:57:00,68.0,50.2,29.70,NE,45,4.7,-999.0,53,-99.99,,,0.00,Acu-Link.com,2013-03-11 20:57:00,
2013-03-11 17:13:00,68.0,50.2,29.67,South,180,3.6,-999.0,53,-99.99,,,0.00,Acu-Link.com,2013-03-11 21:13:00,
2013-03-11 17:28:00,68.0,50.7,29.68,SSW,202,3.1,-999.0,54,-99.99,,,0.00,Acu-Link.com,2013-03-11 21:28:00,
2013-03-11 17:43:00,68.0,50.7,29.68,ESE,112,1.1,-999.0,54,-99.99,,,0.00,Acu-Link.com,2013-03-11 21:43:00,
2013-03-11 17:58:00,66.2,49.5,29.66,South,180,3.6,-999.0,55,-99.99,,,0.00,Acu-Link.com,2013-03-11 21:58:00,
2013-03-11 18:13:00,64.4,48.4,29.66,South,180,4.7,-999.0,56,-99.99,,,0.00,Acu-Link.com,2013-03-11 22:13:00,
2013-03-11 18:28:00,64.4,49.3,29.66,SSW,202,1.1,-999.0,58,-99.99,,,0.00,Acu-Link.com,2013-03-11 22:28:00,
2013-03-11 18:44:00,64.4,49.3,29.66,WSW,247,3.1,-999.0,58,-99.99,,,0.00,Acu-Link.com,2013-03-11 22:44:00,
2013-03-11 18:59:00,64.4,49.8,29.66,West,270,1.6,-999.0,59,-99.99,,,0.00,Acu-Link.com,2013-03-11 22:59:00,
2013-03-11 19:14:00,62.6,48.5,29.67,WSW,247,2.0,-999.0,60,-99.99,,,0.00,Acu-Link.com,2013-03-11 23:14:00,
2013-03-11 19:30:00,62.6,48.1,29.68,East,90,2.7,-999.0,59,-99.99,,,0.00,Acu-Link.com,2013-03-11 23:30:00,
2013-03-11 19:45:00,62.6,48.5,29.67,South,180,3.6,-999.0,60,-99.99,,,0.00,Acu-Link.com,2013-03-11 23:45:00,
2013-03-11 20:00:00,62.6,49.4,29.64,ESE,112,3.6,-999.0,62,-99.99,,,0.00,Acu-Link.com,2013-03-12 00:00:00,
2013-03-11 20:15:00,62.6,49.8,29.66,SSE,157,2.7,-999.0,63,-99.99,,,0.00,Acu-Link.com,2013-03-12 00:15:00,
2013-03-11 20:30:00,62.6,50.2,29.66,NNE,22,6.3,-999.0,64,-99.99,,,0.00,Acu-Link.com,2013-03-12 00:30:00,
2013-03-11 21:16:00,62.6,51.1,29.64,SSW,202,3.1,-999.0,66,-99.99,,,0.00,Acu-Link.com,2013-03-12 01:16:00,
2013-03-11 21:47:00,60.8,50.6,29.65,West,270,8.3,-999.0,69,-99.99,,,0.00,Acu-Link.com,2013-03-12 01:47:00,
2013-03-11 22:02:00,60.8,51.3,29.66,SE,135,4.7,-999.0,71,-99.99,,,0.00,Acu-Link.com,2013-03-12 02:02:00,
2013-03-11 22:17:00,59.0,51.4,29.65,North,0,4.7,-999.0,76,-99.99,,,0.00,Acu-Link.com,2013-03-12 02:17:00,
2013-03-11 22:33:00,59.0,52.5,29.65,ESE,112,6.7,-999.0,79,-99.99,,,0.00,Acu-Link.com,2013-03-12 02:33:00,
2013-03-11 22:48:00,59.0,53.8,29.64,ESE,112,2.7,-999.0,83,-99.99,,,0.01,Acu-Link.com,2013-03-12 02:48:00,
2013-03-11 23:03:00,57.2,53.4,29.64,SSE,157,2.0,-999.0,87,-99.99,,,0.02,Acu-Link.com,2013-03-12 03:03:00,
2013-03-11 23:18:00,57.2,54.0,29.64,South,180,4.0,-999.0,89,-99.99,,,0.04,Acu-Link.com,2013-03-12 03:18:00,
2013-03-11 23:33:00,55.4,53.1,29.66,SE,135,2.0,-999.0,92,-99.99,,,0.05,Acu-Link.com,2013-03-12 03:33:00,
2013-03-11 23:49:00,55.4,53.4,29.64,ESE,112,1.6,-999.0,93,-99.99,,,0.09,Acu-Link.com,2013-03-12 03:49:00,